Orbital Elements at Epoch 2459200.5 (2020-Dec-17.0) TDB
Reference: JPL 23 (heliocentric ecliptic J2000)
Element | Value | Uncertainty (1-sigma) | Units |
e | .1088218266995659 | 3.7371e-08 | |
a | 2.305655615901831 | 8.2812e-09 | au |
q | 2.054749960039281 | 8.6254e-08 | au |
i | 4.998515241188817 | 4.2613e-06 | deg |
node | 64.20496485181891 | 4.7969e-05 | deg |
peri | 81.14606832114336 | 5.2949e-05 | deg |
M | 323.0759807071202 | 2.0624e-05 | deg |
tp | 2459331.658534209247 (2021-Apr-27.15853421) | 7.3375e-05 | TDB |
period | 1278.76307128986 3.50 | 6.8893e-06 1.886e-08 | d yr |
n | .2815220489882273 | 1.5167e-09 | deg/d |
Q | 2.556561271764381 | 9.1823e-09 | au |
|
| | Orbit Determination Parameters
Additional Information
|